Погода в Большой Верейке

Россия / Воронежская область     52°01′02″N   38°55′34″E
темп.,
°C
ветер,
м/с
пор.,
м/с
влажн.,
%
обл.,
%
осадки,
мм/ч
давл.,
гПа
погр.,
м
14 августа, вс
вс1400:00+21вюв4968100 0.2 1020272
03:00+20всв3671100 0.3 1018153
06:00+22св2263100 0.0 101837
09:00+22св3462100 0.1 1019175
12:00+25всв465487 0.2 1018744
15:00+26в484259 0.2 1017600
18:00+25св584323 0.0 1017576
21:00+20св4105740 0.0 1017193
15 августа, пн
пн1500:00+19св495778 0.0 1016153
03:00+18всв486367 0.0 1016150
06:00+18всв396116 0.0 1017170
09:00+26в694082 0.0 1016527
12:00+31в7829100 0.0 10161506
15:00+32в672674 0.0 10151798
18:00+31всв682922 0.0 10141007
21:00+26всв7154150 0.0 1015456
16 августа, вт
вт1600:00+24в61442100 0.0 1016510
03:00+22вюв61545100 0.0 1017524
06:00+21в51338100 0.0 1017393
09:00+24в71133100 0.0 1018565
12:00+29в7826100 0.0 10171188
15:00+31в782362 0.0 10151599
18:00+29в4729100 0.0 1015324
21:00+25вюв2440100 0.0 101675
17 августа, ср
ср1700:00+24всв41043100 0.0 1015260
03:00+24в7144051 0.1 1014420
06:00+25в81430100 0.0 1014449
09:00+26вюв71232100 0.1 1014426
12:00+30в792893 0.0 1013986
15:00+33всв81122100 0.0 10122787
18:00+31всв9132482 0.0 10111151
21:00+27всв91829100 0.0 1012671
18 августа, чт
чт1800:00+25всв61334100 0.0 1012488
03:00+22св5104397 0.1 1012282
06:00+22всв51241100 0.0 1011440
09:00+24всв61038100 0.0 1011415
12:00+29всв61034100 0.0 1010713
15:00+26всв61238100 0.0 1011722
18:00+28ссв61134100 0.0 1010699
21:00+25всв61339100 0.0 1010393